Weather History for Hazen, ND

Change the Weather History Date:

Tuesday, February 5, 2013

  Actual Average (KN60) Record (KN60)
Temperature  
Mean Temperature 26 °F -  
Max Temperature 33 °F 23 °F 52 °F (2012)
Min Temperature 19 °F 3 °F -9 °F (2007)
Degree Days  
Heating Degree Days 39    
Moisture  
Dew Point 22 °F    
Average Humidity 75    
Maximum Humidity 93    
Minimum Humidity 64    
Precipitation  
Precipitation 0.00 in - - ()
Sea Level Pressure  
Sea Level Pressure 29.87 in    
Wind  
Wind Speed 12 mph (WNW)    
Max Wind Speed 21 mph    
Max Gust Speed 26 mph    
Visibility 10 miles    
Events      
Averages and records for this station are not official NWS values.
T = Trace of Precipitation, MM = Missing Value Source: NWS Daily Summary

Daily Weather History Graph

Daily Weather History Graph

Search for Another Location

Airport:

Trip Planner

Search our weather history database for the weather conditions in past years. The results will help you decide how hot, cold, wet, or windy it might be!

Date:

Astronomy

Feb. 05, 2013 Rise Set
Actual Time 8:06 AM CST 5:55 PM CST
Civil Twilight 7:33 AM CST 6:27 PM CST
Nautical Twilight 6:57 AM CST 7:03 PM CST
Astronomical Twilight 6:21 AM CST 7:39 PM CST
Moon 3:57 AM CST (2/5) 1:06 PM CST (2/5)
Length of Visible Light 10h 53m
Length of Day
9h 48m
Waning Crescent, 26% of the Moon is Illuminated
Feb 5
Waning Crescent
Feb 10
New
Feb 17
First Quarter
Feb 25
Full
Mar 4
Last Quarter

Hourly Weather History & Observations

Time (CST) Temp. Windchill Dew Point Humidity Pressure Visibility Wind Dir Wind Speed Gust Speed Precip Events Conditions
12:15 AM 30.2 °F 20.8 °F 26.6 °F 86% 29.68 in 10.0 mi West 11.5 mph - N/A   Scattered Clouds
12:35 AM 32.0 °F 22.5 °F 26.6 °F 80% 29.69 in 10.0 mi West 12.7 mph - N/A   Mostly Cloudy
12:55 AM 32.0 °F 22.1 °F 26.6 °F 80% 29.70 in 10.0 mi WNW 13.8 mph - N/A   Overcast
1:15 AM 32.0 °F 22.5 °F 26.6 °F 80% 29.70 in 10.0 mi WNW 12.7 mph 19.6 mph N/A   Overcast
1:35 AM 33.8 °F 23.2 °F 26.6 °F 75% 29.71 in 10.0 mi WNW 17.3 mph 20.7 mph N/A   Overcast
1:55 AM 33.8 °F 23.5 °F 26.6 °F 75% 29.72 in 10.0 mi NW 16.1 mph 20.7 mph N/A   Mostly Cloudy
2:15 AM 32.0 °F 22.5 °F 24.8 °F 75% 29.73 in 10.0 mi WNW 12.7 mph - N/A   Partly Cloudy
2:35 AM 32.0 °F 23.0 °F 24.8 °F 75% 29.74 in 10.0 mi WNW 11.5 mph - N/A   Partly Cloudy
2:55 AM 32.0 °F 22.1 °F 24.8 °F 75% 29.75 in 10.0 mi West 13.8 mph - N/A   Mostly Cloudy
3:15 AM 32.0 °F 21.2 °F 26.6 °F 80% 29.76 in 10.0 mi WNW 16.1 mph 20.7 mph N/A   Overcast
3:35 AM 32.0 °F 20.8 °F 26.6 °F 80% 29.76 in 10.0 mi WNW 17.3 mph 23.0 mph N/A   Overcast
3:55 AM 32.0 °F 20.8 °F 26.6 °F 80% 29.77 in 10.0 mi WNW 17.3 mph 23.0 mph N/A   Overcast
4:15 AM 32.0 °F 21.2 °F 26.6 °F 80% 29.78 in 10.0 mi WNW 16.1 mph 21.9 mph N/A   Overcast
4:35 AM 32.0 °F 22.1 °F 24.8 °F 75% 29.79 in 10.0 mi WNW 13.8 mph 21.9 mph N/A   Overcast
4:55 AM 32.0 °F 22.1 °F 24.8 °F 75% 29.80 in 10.0 mi WNW 13.8 mph 18.4 mph N/A   Overcast
5:15 AM 32.0 °F 22.1 °F 24.8 °F 75% 29.81 in 10.0 mi WNW 13.8 mph 19.6 mph N/A   Overcast
5:35 AM 32.0 °F 22.1 °F 24.8 °F 75% 29.82 in 10.0 mi WNW 13.8 mph - N/A   Overcast
6:15 AM 32.0 °F 21.6 °F 24.8 °F 75% 29.83 in 10.0 mi WNW 15.0 mph - N/A   Overcast
6:35 AM 32.0 °F 22.1 °F 24.8 °F 75% 29.84 in 10.0 mi WNW 13.8 mph - N/A   Overcast
6:55 AM 32.0 °F 22.5 °F 24.8 °F 75% 29.85 in 10.0 mi NW 12.7 mph 18.4 mph N/A   Overcast
7:15 AM 32.0 °F 22.5 °F 24.8 °F 75% 29.86 in 10.0 mi WNW 12.7 mph - N/A   Overcast
7:35 AM 32.0 °F 22.5 °F 24.8 °F 75% 29.87 in 10.0 mi NW 12.7 mph 18.4 mph N/A   Overcast
8:15 AM 30.2 °F 21.3 °F 26.6 °F 86% 29.89 in 10.0 mi WNW 10.4 mph 16.1 mph N/A   Overcast
8:35 AM 30.2 °F 21.3 °F 26.6 °F 86% 29.90 in 10.0 mi WNW 10.4 mph - N/A   Overcast
8:55 AM 30.2 °F 21.9 °F 26.6 °F 86% 29.90 in 10.0 mi WNW 9.2 mph - N/A   Mostly Cloudy
9:15 AM 32.0 °F 23.0 °F 26.6 °F 80% 29.91 in 10.0 mi WNW 11.5 mph - N/A   Overcast
9:35 AM 32.0 °F 20.5 °F 26.6 °F 80% 29.91 in 10.0 mi NW 18.4 mph - N/A   Overcast
9:55 AM 28.4 °F 19.7 °F 24.8 °F 86% 29.92 in 10.0 mi North 9.2 mph 23.0 mph N/A   Overcast
10:15 AM 24.8 °F 16.9 °F 23.0 °F 93% 29.93 in 8.0 mi ENE 6.9 mph - N/A   Overcast
10:35 AM 26.6 °F 21.2 °F 21.2 °F 80% 29.94 in 10.0 mi North 4.6 mph - N/A   Overcast
10:55 AM 26.6 °F - 21.2 °F 80% 29.94 in 10.0 mi Calm Calm - N/A   Overcast
11:15 AM 26.6 °F 21.2 °F 23.0 °F 86% 29.95 in 10.0 mi North 4.6 mph - N/A   Overcast
11:35 AM 28.4 °F 20.4 °F 21.2 °F 74% 29.96 in 10.0 mi NNW 8.1 mph - N/A   Overcast
11:55 AM 30.2 °F 21.9 °F 23.0 °F 75% 29.96 in 10.0 mi NNW 9.2 mph - N/A   Overcast
12:15 PM 30.2 °F 20.2 °F 23.0 °F 75% 29.96 in 10.0 mi NW 12.7 mph - N/A   Overcast
12:35 PM 30.2 °F 17.4 °F 19.4 °F 64% 29.96 in 10.0 mi NW 20.7 mph 26.5 mph N/A   Overcast
12:55 PM 30.2 °F 20.2 °F 19.4 °F 64% 29.96 in 10.0 mi NW 12.7 mph 21.9 mph N/A   Overcast
1:15 PM 30.2 °F 19.8 °F 19.4 °F 64% 29.95 in 10.0 mi North 13.8 mph - N/A   Mostly Cloudy
1:35 PM 30.2 °F 21.3 °F 19.4 °F 64% 29.95 in 10.0 mi NW 10.4 mph - N/A   Mostly Cloudy
1:55 PM 30.2 °F 20.2 °F 19.4 °F 64% 29.95 in 10.0 mi NNW 12.7 mph - N/A   Mostly Cloudy
2:15 PM 30.2 °F 19.3 °F 19.4 °F 64% 29.94 in 10.0 mi NNW 15.0 mph - N/A   Partly Cloudy
2:35 PM 30.2 °F 19.3 °F 19.4 °F 64% 29.94 in 10.0 mi NNW 15.0 mph 19.6 mph N/A   Partly Cloudy
2:55 PM 30.2 °F 21.3 °F 19.4 °F 64% 29.94 in 10.0 mi NNW 10.4 mph - N/A   Mostly Cloudy
3:15 PM 30.2 °F 21.3 °F 19.4 °F 64% 29.94 in 10.0 mi NNW 10.4 mph - N/A   Overcast
3:35 PM 30.2 °F 22.6 °F 19.4 °F 64% 29.94 in 10.0 mi NNW 8.1 mph - N/A   Overcast
3:55 PM 28.4 °F 23.3 °F 19.4 °F 69% 29.94 in 10.0 mi NNW 4.6 mph - N/A   Mostly Cloudy
4:15 PM 28.4 °F 24.6 °F 19.4 °F 69% 29.94 in 10.0 mi North 3.5 mph - N/A   Scattered Clouds
4:35 PM 28.4 °F - 17.6 °F 64% 29.93 in 10.0 mi Calm Calm - N/A   Mostly Cloudy
4:55 PM 28.4 °F - 19.4 °F 69% 29.92 in 10.0 mi Calm Calm - N/A   Mostly Cloudy
5:15 PM 26.6 °F 21.2 °F 19.4 °F 74% 29.92 in 10.0 mi ESE 4.6 mph - N/A   Partly Cloudy
5:35 PM 26.6 °F 19.1 °F 17.6 °F 69% 29.91 in 10.0 mi SE 6.9 mph - N/A   Partly Cloudy
5:55 PM 24.8 °F 16.9 °F 17.6 °F 74% 29.91 in 10.0 mi SE 6.9 mph - N/A   Clear
6:15 PM 23.0 °F 13.9 °F 17.6 °F 80% 29.90 in 10.0 mi SE 8.1 mph - N/A   Partly Cloudy
6:35 PM 21.2 °F 11.7 °F 15.8 °F 80% 29.90 in 10.0 mi SE 8.1 mph - N/A   Partly Cloudy
6:55 PM 23.0 °F 13.9 °F 15.8 °F 74% 29.90 in 10.0 mi SE 8.1 mph - N/A   Mostly Cloudy
7:15 PM 19.4 °F 8.6 °F 15.8 °F 86% 29.90 in 10.0 mi SSE 9.2 mph - N/A   Mostly Cloudy
7:35 PM 21.2 °F 12.6 °F 15.8 °F 80% 29.89 in 10.0 mi SE 6.9 mph - N/A   Overcast
7:55 PM 23.0 °F 13.1 °F 17.6 °F 80% 29.88 in 10.0 mi SE 9.2 mph - N/A   Overcast
8:15 PM 24.8 °F 15.3 °F 17.6 °F 74% 29.87 in 10.0 mi SE 9.2 mph - N/A   Overcast
8:35 PM 24.8 °F 15.3 °F 17.6 °F 74% 29.88 in 10.0 mi SSE 9.2 mph - N/A   Overcast
8:55 PM 24.8 °F 14.0 °F 17.6 °F 74% 29.88 in 10.0 mi SSE 11.5 mph - N/A   Overcast
9:15 PM 24.8 °F 13.4 °F 17.6 °F 74% 29.87 in 10.0 mi SSE 12.7 mph - N/A   Overcast
9:35 PM 24.8 °F 11.9 °F 17.6 °F 74% 29.87 in 10.0 mi SSE 16.1 mph - N/A   Overcast
9:55 PM 24.8 °F 12.9 °F 17.6 °F 74% 29.86 in 10.0 mi SSE 13.8 mph - N/A   Overcast
10:15 PM 24.8 °F 12.9 °F 17.6 °F 74% 29.85 in 10.0 mi SSE 13.8 mph - N/A   Overcast
10:35 PM 24.8 °F 12.4 °F 17.6 °F 74% 29.84 in 10.0 mi SSE 15.0 mph - N/A   Overcast
10:55 PM 24.8 °F 11.1 °F 17.6 °F 74% 29.83 in 10.0 mi SSE 18.4 mph - N/A   Overcast
11:15 PM 24.8 °F 11.9 °F 17.6 °F 74% 29.83 in 10.0 mi SE 16.1 mph 23.0 mph N/A   Overcast
11:35 PM 24.8 °F 15.3 °F 17.6 °F 74% 29.83 in 10.0 mi SE 9.2 mph - N/A   Overcast
11:55 PM 24.8 °F 13.4 °F 17.6 °F 74% 29.83 in 10.0 mi SE 12.7 mph 20.7 mph N/A   Overcast